• In Latvia
  • List of Countries
  • For 7 days
  • Water Temperature
  • Satellite Maps
  • Weather Map
  • Weather Widgets
  • user-avatar
    Login

    Hourly Weather Escaldes-Engordany

    Today, 22 September, Friday

    Time Temperature Precipitation Wind Pressure Humidity
    00:00 +9°C° 0 mm 1 mps 641 mmHg 74%
    01:00 +9°C° 0.1 mm 1 mps 641 mmHg 74%
    02:00 +9°C° 0.1 mm 1 mps 641 mmHg 75%
    03:00 +9°C° 0.1 mm 1 mps 641 mmHg 75%
    04:00 +9°C° 0.2 mm 1 mps 641 mmHg 77%
    05:00 +9°C° 0.2 mm 1 mps 641 mmHg 78%
    06:00 +9°C° 0.2 mm 1 mps 641 mmHg 79%
    07:00 +11°C° 0 mm 1 mps 642 mmHg 74%
    08:00 +13°C° 0 mm 1 mps 643 mmHg 69%
    09:00 +15°C° 0 mm 1 mps 644 mmHg 63%
    10:00 +15°C° 0.5 mm 1 mps 644 mmHg 65%
    11:00 +15°C° 0.5 mm 2 mps 644 mmHg 66%
    12:00 +15°C° 0.5 mm 2 mps 644 mmHg 67%
    13:00 +15°C° 0.8 mm 1 mps 644 mmHg 70%
    14:00 +15°C° 0.8 mm 1 mps 644 mmHg 72%
    15:00 +14°C° 0.8 mm 1 mps 643 mmHg 75%
    16:00 +13°C° 0.8 mm 1 mps 643 mmHg 79%
    17:00 +12°C° 0.8 mm 1 mps 643 mmHg 83%
    18:00 +11°C° 0.8 mm 1 mps 642 mmHg 88%
    19:00 +10°C° 0.6 mm 0 mps 642 mmHg 88%
    20:00 +9°C° 0.6 mm 0 mps 643 mmHg 89%
    21:00 +9°C° 0.6 mm 0 mps 643 mmHg 90%
    22:00 +9°C° 0.2 mm 0 mps 643 mmHg 90%
    23:00 +10°C° 0.2 mm 1 mps 642 mmHg 90%

    Tomorrow, 23 September, Saturday

    Time Temperature Precipitation Wind Pressure Humidity
    00:00 +9°C° 0.2 mm 1 mps 642 mmHg 91%
    01:00 +9°C° 0.1 mm 1 mps 642 mmHg 90%
    02:00 +9°C° 0.1 mm 1 mps 642 mmHg 89%
    03:00 +9°C° 0.1 mm 1 mps 642 mmHg 89%
    04:00 +9°C° 0.1 mm 1 mps 641 mmHg 88%
    05:00 +9°C° 0.1 mm 1 mps 641 mmHg 88%
    06:00 +9°C° 0.1 mm 1 mps 641 mmHg 87%
    07:00 +11°C° 0.1 mm 1 mps 642 mmHg 80%
    08:00 +13°C° 0.1 mm 1 mps 643 mmHg 73%
    09:00 +15°C° 0.1 mm 1 mps 644 mmHg 65%
    10:00 +16°C° 0.3 mm 2 mps 644 mmHg 61%
    11:00 +17°C° 0.3 mm 2 mps 644 mmHg 57%
    12:00 +18°C° 0.3 mm 2 mps 644 mmHg 53%
    13:00 +18°C° 0.4 mm 2 mps 644 mmHg 52%
    14:00 +18°C° 0.4 mm 2 mps 644 mmHg 52%
    15:00 +18°C° 0.4 mm 2 mps 643 mmHg 52%
    16:00 +16°C° 0.1 mm 1 mps 643 mmHg 59%
    17:00 +14°C° 0.1 mm 1 mps 642 mmHg 67%
    18:00 +12°C° 0.1 mm 1 mps 641 mmHg 74%
    19:00 +12°C° 0 mm 1 mps 641 mmHg 76%
    20:00 +11°C° 0 mm 1 mps 642 mmHg 79%
    21:00 +10°C° 0 mm 1 mps 642 mmHg 81%
    22:00 +10°C° 0 mm 1 mps 642 mmHg 79%
    23:00 +10°C° 0 mm 1 mps 641 mmHg 77%

    Day after tomorrow, 24 September, Sunday

    Time Temperature Precipitation Wind Pressure Humidity
    00:00 +10°C° 0 mm 1 mps 641 mmHg 76%
    01:00 +10°C° 0 mm 1 mps 641 mmHg 73%
    02:00 +10°C° 0 mm 1 mps 641 mmHg 70%
    03:00 +9°C° 0 mm 1 mps 641 mmHg 68%
    04:00 +9°C° 0 mm 1 mps 641 mmHg 66%
    05:00 +9°C° 0 mm 1 mps 641 mmHg 64%
    06:00 +8°C° 0 mm 2 mps 641 mmHg 62%
    07:00 +12°C° 0 mm 1 mps 642 mmHg 56%
    08:00 +15°C° 0 mm 1 mps 643 mmHg 50%
    09:00 +17°C° 0 mm 0 mps 645 mmHg 44%
    10:00 +20°C° 0 mm 1 mps 645 mmHg 42%
    11:00 +21°C° 0 mm 1 mps 645 mmHg 39%
    12:00 +22°C° 0 mm 1 mps 645 mmHg 37%
    13:00 +22°C° 0 mm 1 mps 645 mmHg 39%
    14:00 +20°C° 0 mm 2 mps 644 mmHg 41%
    15:00 +20°C° 0 mm 2 mps 643 mmHg 44%
    16:00 +19°C° 0 mm 1 mps 643 mmHg 52%
    17:00 +16°C° 0 mm 1 mps 642 mmHg 60%
    18:00 +14°C° 0 mm 1 mps 641 mmHg 68%
    19:00 +13°C° 0 mm 1 mps 641 mmHg 71%
    20:00 +13°C° 0 mm 1 mps 641 mmHg 73%
    21:00 +12°C° 0 mm 1 mps 641 mmHg 75%
    22:00 +12°C° 0 mm 1 mps 641 mmHg 74%
    23:00 +12°C° 0 mm 1 mps 641 mmHg 73%

    25 September, Monday

    Time Temperature Precipitation Wind Pressure Humidity
    00:00 +12°C° 0 mm 1 mps 641 mmHg 73%
    01:00 +11°C° 0 mm 1 mps 640 mmHg 72%
    02:00 +11°C° 0 mm 1 mps 640 mmHg 71%
    03:00 +11°C° 0 mm 1 mps 640 mmHg 70%
    04:00 +11°C° 0 mm 1 mps 640 mmHg 70%
    05:00 +11°C° 0 mm 1 mps 640 mmHg 70%
    06:00 +11°C° 0 mm 1 mps 640 mmHg 70%
    07:00 +12°C° 0.1 mm 1 mps 641 mmHg 68%
    08:00 +13°C° 0.1 mm 1 mps 641 mmHg 66%
    09:00 +15°C° 0.1 mm 1 mps 642 mmHg 64%
    10:00 +15°C° 0.4 mm 1 mps 642 mmHg 63%
    11:00 +16°C° 0.4 mm 1 mps 643 mmHg 63%
    12:00 +17°C° 0.4 mm 2 mps 643 mmHg 62%
    13:00 +16°C° 0.5 mm 2 mps 642 mmHg 65%
    14:00 +16°C° 0.5 mm 2 mps 642 mmHg 68%
    15:00 +15°C° 0.5 mm 2 mps 642 mmHg 71%
    16:00 +14°C° 0.5 mm 2 mps 642 mmHg 76%
    17:00 +13°C° 0.5 mm 2 mps 641 mmHg 82%
    18:00 +12°C° 0.5 mm 2 mps 641 mmHg 87%
    19:00 +12°C° 0.2 mm 2 mps 641 mmHg 89%
    20:00 +10°C° 0.2 mm 2 mps 642 mmHg 90%
    21:00 +10°C° 0.2 mm 2 mps 642 mmHg 92%
    22:00 +11°C° 0.1 mm 1 mps 642 mmHg 92%
    23:00 +10°C° 0.1 mm 1 mps 642 mmHg 93%

    26 September, Tuesday

    Time Temperature Precipitation Wind Pressure Humidity
    00:00 +10°C° 0.1 mm 1 mps 641 mmHg 93%
    01:00 +10°C° 0.1 mm 1 mps 641 mmHg 93%
    02:00 +10°C° 0.1 mm 1 mps 641 mmHg 94%
    03:00 +9°C° 0.1 mm 1 mps 641 mmHg 95%
    04:00 +9°C° 0 mm 1 mps 641 mmHg 95%
    05:00 +9°C° 0 mm 1 mps 641 mmHg 95%
    06:00 +9°C° 0 mm 1 mps 641 mmHg 95%
    07:00 +10°C° 0 mm 1 mps 641 mmHg 89%
    08:00 +12°C° 0 mm 1 mps 642 mmHg 83%
    09:00 +13°C° 0 mm 1 mps 643 mmHg 77%
    10:00 +14°C° 0.1 mm 1 mps 643 mmHg 73%
    11:00 +14°C° 0.1 mm 1 mps 643 mmHg 69%
    12:00 +15°C° 0.1 mm 1 mps 643 mmHg 66%
    13:00 +15°C° 0.1 mm 1 mps 643 mmHg 66%
    14:00 +15°C° 0.1 mm 1 mps 642 mmHg 66%
    15:00 +15°C° 0.1 mm 1 mps 642 mmHg 66%
    16:00 +14°C° 0 mm 1 mps 642 mmHg 71%
    17:00 +12°C° 0 mm 1 mps 642 mmHg 76%
    18:00 +10°C° 0 mm 0 mps 641 mmHg 82%
    19:00 +10°C° 0 mm 1 mps 641 mmHg 84%
    20:00 +10°C° 0 mm 1 mps 641 mmHg 86%
    21:00 +9°C° 0 mm 1 mps 641 mmHg 87%
    22:00 +9°C° 0 mm 1 mps 641 mmHg 88%
    23:00 +9°C° 0 mm 1 mps 641 mmHg 89%

    27 September, Wednesday

    Time Temperature Precipitation Wind Pressure Humidity
    00:00 +8°C° 0 mm 1 mps 641 mmHg 90%
    01:00 +8°C° 0 mm 1 mps 641 mmHg 89%
    02:00 +8°C° 0 mm 1 mps 641 mmHg 89%
    03:00 +8°C° 0 mm 1 mps 641 mmHg 89%
    04:00 +8°C° 0 mm 1 mps 641 mmHg 87%
    05:00 +8°C° 0 mm 1 mps 641 mmHg 86%
    06:00 +8°C° 0 mm 1 mps 641 mmHg 85%
    07:00 +11°C° 0 mm 1 mps 643 mmHg 73%
    08:00 +14°C° 0 mm 1 mps 644 mmHg 61%
    09:00 +15°C° 0 mm 0 mps 645 mmHg 49%
    10:00 +19°C° 0 mm 1 mps 645 mmHg 45%
    11:00 +20°C° 0 mm 1 mps 646 mmHg 41%
    12:00 +21°C° 0 mm 1 mps 646 mmHg 36%
    13:00 +21°C° 0 mm 1 mps 646 mmHg 37%
    14:00 +21°C° 0 mm 1 mps 646 mmHg 38%
    15:00 +21°C° 0 mm 1 mps 645 mmHg 39%
    16:00 +18°C° 0 mm 1 mps 645 mmHg 48%
    17:00 +15°C° 0 mm 1 mps 644 mmHg 57%
    18:00 +12°C° 0 mm 1 mps 643 mmHg 65%
    19:00 +12°C° 0 mm 1 mps 644 mmHg 68%
    20:00 +11°C° 0 mm 1 mps 644 mmHg 71%
    21:00 +11°C° 0 mm 1 mps 644 mmHg 73%
    22:00 +11°C° 0 mm 1 mps 644 mmHg 73%
    23:00 +10°C° 0 mm 1 mps 644 mmHg 72%
    Show more